Location: Edinburgh
(55.9500°N, 3.1600°W)
Time: 23:11:52
(UTC+01:00)

Envisat - Pass Details

Date: 09 October 2017
Orbit: 764 x 766 km, 98.2° (Epoch: 16 October)

Event Time Altitude Azimuth Distance (km) Brightness Sun altitude
Exits shadow 21:44:01 15° 211° (SSW) 1,963 5.1 -27.4°
Maximum altitude 21:47:29 31° 267° (W) 1,320 4.6 -27.8°
Drops below altitude 10° 21:52:00 10° 329° (NNW) 2,316 6.3 -28.3°
Sets 21:54:35 0° 340° (NNW) 3,247 7.0 -28.6°
